Location: Unspecified
(0.0000°N, 0.0000°E)
Time: 10:35:02
(UTC+00:00)

HEATHSAT - Pass Details

Date: 16 June 2023
Orbit: 779 x 793 km, 98.8° (Epoch: 21 September)

Event Time Altitude Azimuth Distance (km) Brightness Sun altitude
Exits shadow 20:11:31 16° 21° (NNE) 1,923 9.7 -29.7°
Drops below altitude 10° 20:12:42 10° 13° (NNE) 2,320 10.2 -30.0°
Sets 20:15:11 0° 4° (N) 3,245 11.1 -30.5°
